Main page
METAR-TAF:

METAR-TAF

Airports :

Houston Southwest Airport

Houston, Texas, United States

latitude: 29-30-22N, longitude: 095-28-37W, elevation: 69 ft

Current weather observation

The report was made 20 minutes ago, at 04:15 UTC
Calm wind
Temperature 36°F
Humidity 80%
Pressure 30.32 in. Hg
Visibility: 10 miles
Clear sky

METAR: KAXH 210415Z AUTO 00000KT 10SM CLR 02/M01 A3032 RMK AO2 T00211007

Time: 21:35 (04:35 UTC)


TAF: missing

Weather observations and forecasts of more than 4000 airports (METAR and TAF reports).

The available stations are represented by yellow and red dots on the map.

Hover mouse over dot to see the name of the station.

Then click to see weather observations and forecasts.

To change the map : click on the green buttons with a black cross to zoom in, on the green button with a dash to zoom out, or on the green arrows for adjacent maps.


METAR-TAF: